Regional Weather Roundup
Issued by NWS Portland, ME

Current Version | Previous Version | Text Only | Print | Product List | Glossary Off
Versions: 1 2 3 4 5 6 7 8 9 10 11 12 13 14 15 16 17 18 19 20 21 22 23 24 25 26 27 28 29 30 31 32 33 34 35 36 37 38 39 40 41 42 43 44 45 46 47 48 49 50
000 ASUS41 KGYX 171805 RWRGYX WEATHER ROUNDUP FOR MAINE AND NEW HAMPSHIRE NATIONAL WEATHER SERVICE GRAY ME 200 PM EDT TUE JUL 17 2018 MEZ002-005-006-010-012-015-018-020-021-024-026-027-029-171900- MAINE CITY SKY/WX TMP DP RH WIND PRES REMARKS PORTLAND TSTM 72 72 100 CALM 29.77F FOG 6HR MIN TEMP: 68; 6HR MAX TEMP: 80; 6HR PCP: 0.55; SANFORD RAIN 70 69 97 CALM 29.79F BAR HARBOR CLOUDY 68 67 96 SW9 29.81R FOG WISCASSET LGT RAIN 72 71 97 SW3 29.80S FOG 6HR MIN TEMP: 67; 6HR MAX TEMP: 77; 6HR PCP: 0.01; ROCKLAND CLOUDY 70 68 93 SW9 29.80R FRYEBURG FAIR 74 73 97 CALM 29.78F 6HR MIN TEMP: 69; 6HR MAX TEMP: 75; LEWISTONAUBURN RAIN 72 72 100 SE3 29.79S FOG AUGUSTA LGT RAIN 72 71 97 S6 29.80R FOG 6HR MIN TEMP: 66; 6HR MAX TEMP: 73; 6HR PCP: 0.11; WATERVILLE LGT RAIN 72 70 93 CALM 29.76R FOG BANGOR LGT RAIN 72 69 90 SW7 29.81R 6HR MIN TEMP: 65; 6HR MAX TEMP: 73; 6HR PCP: TRACE; GREENVILLE N/A 67 67 100 SE5 29.78F 6HR MIN TEMP: 64; 6HR MAX TEMP: 69; 6HR PCP: 0.75; MILLINOCKET LGT RAIN 70 68 93 VRB3 29.79F FOG 6HR MIN TEMP: 66; 6HR MAX TEMP: 71; 6HR PCP: 0.32; HOULTON LGT RAIN 69 68 96 VRB5 29.77F 6HR MIN TEMP: 66; 6HR MAX TEMP: 70; 6HR PCP: 0.17; PRESQUE ISLE LGT RAIN 69 67 93 SE8 29.76F FRENCHVILLE CLOUDY 72 67 84 S8 29.75F 6HR MIN TEMP: 67; 6HR MAX TEMP: 72; 6HR PCP: 0.22; CARIBOU CLOUDY 69 67 93 SE10 29.75F 6HR MIN TEMP: 68; 6HR MAX TEMP: 70; 6HR PCP: 0.28; $$ NHZ002-005-008-009-011-012-014-171900- NEW HAMPSHIRE CITY SKY/WX TMP DP RH WIND PRES REMARKS PORTSMOUTH LGT RAIN 69 68 97 SW7 29.78R FOG ROCHESTER LGT RAIN 71 71 100 CALM 29.78F FOG 6HR MIN TEMP: 70; 6HR MAX TEMP: 86; 6HR PCP: 0.97; NASHUA LGT RAIN 71 71 100 CALM 29.82F MANCHESTER RAIN 71 70 96 S7 29.80R FOG 6HR MIN TEMP: 70; 6HR MAX TEMP: 89; 6HR PCP: 2.30; CONCORD LGT RAIN 70 69 97 CALM 29.80F 6HR MIN TEMP: 70; 6HR MAX TEMP: 82; 6HR PCP: 0.33; LACONIA TSTM 72 71 97 CALM 29.79F PLYMOUTH N/A 72 70 93 CALM 29.78F BERLIN FAIR 78 68 71 S6 29.79S 6HR MIN TEMP: 69; 6HR MAX TEMP: 78; 6HR PCP: TRACE; WHITEFIELD FAIR 76 70 82 CALM 29.79S 6HR MIN TEMP: 69; 6HR MAX TEMP: 77; 6HR PCP: 0.06; JAFFREY LGT RAIN 69 68 96 S6 29.83F 6HR MIN TEMP: 68; 6HR MAX TEMP: 81; 6HR PCP: 1.36; KEENE RAIN 70 68 93 S6 29.81F LEBANON FAIR 73 68 84 S7 29.78S 6HR MIN TEMP: 73; 6HR MAX TEMP: 76; 6HR PCP: 0.59; MT WASHINGTON FOG 55 55 100 W25 N/A VSB 0 6HR MIN TEMP: 54; 6HR MAX TEMP: 57; 6HR PCP: 0.35; $$ VTZ005-007-008-171900- VERMONT CITY SKY/WX TMP DP RH WIND PRES REMARKS ST JOHNSBURY N/A 77 70 79 MISG 29.73F MONTPELIER FAIR 79 71 76 S10 29.80F BURLINGTON PTSUNNY 86 69 56 S12 29.72F HX 90 $$ MAZ007-012-024-CTZ003-RIZ002-NYZ038-NYZ072-171900- SOUTHERN NEW ENGLAND AND NY CITY SKY/WX TMP DP RH WIND PRES REMARKS BOSTON PTSUNNY 88 69 53 NW29G36 29.81R THUNDER HX 92 NANTUCKET FAIR 74 71 91 S16G25 29.88F PROVIDENCE PTSUNNY 87 72 60 S16G26 29.82F HX 93 HARTFORD TSTM 83 73 72 SW22G29 29.76S ALBANY LGT RAIN 75 71 87 S5 29.80R NEW YORK CITY PTSUNNY 88 73 61 S17 29.75F HX 95 $$ ANZ081-ANZ082-ANZ150-NHZ014-MEZ023>029-171900- COASTAL MARINE OBSERVATIONS STATION/POSITION TIME TEMP WIND PRES WAVE AIR SEA DIR/SP/G HT/PER (UTC) (F) (DEG/KT/KT) (MB) (FT/S) MOUNT DESERT ROC 1800 65 190/ 15/ 16 1009.7R MATINICUS ROCK 1700 64 200/ 16/ 17 1008.6F ISLE OF SHOALS 1700 71 310/ 18/ 23 1009.0R JEFFREYS LEDGE 1736 68 N/A 5/ 5 $$ .............KEY.............. WCI - WIND CHILL TC - TEMPERATURE IN CELSIUS VSB - VISIBILITY IN MILES HX - HEAT INDEX FAIR- INDICATES FEW OR NO CLOUDS BELOW 12,000 FT, WITH NO SIGNIFICANT WEATHER AND/OR OBSTRUCTIONS TO VISIBILITY.

USA.gov is the U.S. government's official web portal to all federal, state and local government web resources and services.